Regional Weather Roundup
Issued by NWS

Home | Current Version | Previous Version | Text Only | Print | Product List | Glossary On
Versions: 1 2 3 4 5 6 7 8 9 10 11 12 13 14 15 16 17 18 19 20 21 22 23 24 25 26 27 28 29 30 31 32 33 34 35 36 37 38 39 40 41 42 43 44 45 46 47 48 49 50
590
ASUS44 KEWX 281011
RWRTX
SOUTH TEXAS REGIONAL WEATHER ROUNDUP
NATIONAL WEATHER SERVICE AUSTIN/SAN ANTONIO TX
500 AM CDT THU JUL 28 2016

NOTE: "FAIR" INDICATED FEW OR NO CLOUDS BELOW 12,000 FEET WITH NO
SIGNIFICANT WEATHER AND/OR OBSTRUCTIONS TO VISIBILITY.

* - THESE STATIONS ARE NOT NWS OR FAA STATIONS...AND ARE NOT SUBJECT
    TO NWS AND FAA QUALITY CONTROL.

TXZ171-172-183>190-281100-
TEXAS HILL COUNTRY AND EDWARDS PLATEAU

CITY           SKY/WX    TMP DP  RH WIND       PRES   REMARKS
JUNCTION       CLOUDY    73  70  90 CALM      30.00S
*LLANO         CLOUDY    75  75 100 CALM      30.02R
BURNET         CLOUDY    76  70  82 S3        30.02R
*HORSESHOE BAY CLOUDY    76  73  88 S6        30.00R
*KERRVILLE     MOCLDY    72  70  94 S6        30.02S
*FREDERICKSBRG CLOUDY    73  69  88 S5        30.02R
*ROCKSPRINGS   CLOUDY    72  70  94 SE7       30.05S
*BOERNE STAGE  CLOUDY    73  72  94 S6        30.03R
*CASTROVILLE   CLOUDY    76  75  95 CALM      29.99S
HONDO          CLOUDY    74  73  97 E5        30.00R
*UVALDE        CLEAR     73  71  96 E6        29.97F
DEL RIO        MOCLDY    76  72  87 E6        29.94F
LAUGHLIN AFB   MOCLDY    75  73  94 E7        29.95S
CARRIZO SPRGS  PTCLDY    75  72  88 CALM      29.93S
*EAGLE PASS    PTSUNNY   75  72  88 E7        29.94S
$$

TXZ173-191>194-202-209-217>225-228-281100-
CENTRAL AND SOUTH CENTRAL TEXAS

CITY           SKY/WX    TMP DP  RH WIND       PRES   REMARKS
GEORGETOWN     CLOUDY    75  70  83 S5        29.99R
AUSTIN/BERGSTM CLOUDY    75  74  96 CALM      29.98R
AUSTIN/MABRY   CLOUDY    77  74  90 CALM      29.99R
*AUSTIN/EXEC     N/A     73  73 100 CALM      29.99S
*LAGO VISTA    CLOUDY    77  73  89 S7        30.01S
SAN MARCOS     CLOUDY    75  73  94 CALM      30.01R
NEW BRAUNFELS  MOCLDY    76  74  93 CALM      29.97S
RANDOLPH AFB   MOCLDY    75  75 100 CALM      29.98S
PT SAN ANTONIO CLOUDY    77  75  92 SE6       29.97S
SAN ANTONIO    MOCLDY    77  74  90 SE6       29.99S
STINSON FIELD  CLOUDY    78  74  87 E3        29.96R
*PLEASANTON    CLOUDY    76  74  94 CALM      29.97R FOG
*LA GRANGE       N/A     78  77  97 S3        29.95S FOG
*GIDDINGS      PTCLDY    76  75  96 S3        30.02R FOG
*GONZALES      CLOUDY    78  78 100 E3        29.97S
$$

TXZ163>164-176>182-195>201-210>213-226-227-235-281100-
SOUTHEAST TEXAS

CITY           SKY/WX    TMP DP  RH WIND       PRES   REMARKS
COLLEGE STN    CLEAR     76  75  97 S5        29.97S
*BRYAN         PTCLDY    75  75 100 SE3       29.99R
*CALDWELL      MOCLDY    73  73 100 CALM      30.01S
*CROCKETT      PTCLDY    75  75 100 CALM      30.01R
*BRENHAM       CLEAR     77  76  98 CALM      29.98R
HUNTSVILLE     MOCLDY    78  75  90 S3        29.98S
CONROE         CLOUDY    76  75  97 CALM      29.98R FOG
HOUSTON BUSH   CLOUDY    82  78  88 S3        29.97R HX  91
HOUSTON HOBBY  CLOUDY    81  78  91 SE3       29.97R
*HOUSTON SW AP CLOUDY    78  77  97 CALM      29.98R
PEARLAND       CLOUDY    84  78  82 S3        29.98S HX  95
HOUSTON HOOKS  CLOUDY    78  77  96 CALM      29.97S
ELLINGTON FLD  NOT AVBL
SUGAR LAND     CLOUDY    78  76  93 S5        29.97R
*HOUSTON EXEC  CLOUDY    79  77  94 S3        29.98R
*CLEVELAND MUN CLOUDY    76  76 100 CALM      29.99R FOG
*WHARTON       PTCLDY    79  77  94 SE3       29.98R
*COLUMBUS      FAIR      76  76 100 CALM      29.97R FOG
*EAGLE LAKE    SUNNY     77  76  99 CALM      29.97R FOG
$$

TXZ214>216-236>238-281100-
THE UPPER TEXAS COAST

CITY           SKY/WX    TMP DP  RH WIND       PRES   REMARKS
*ORANGE        PTCLDY    83  76  79 S6        30.00S HX  90
PORT ARTHUR    PTCLDY    81  77  88 S5        29.98R
GALVESTON      MOCLDY    84  77  79 S12       29.98R HX  94
ANGLETON       CLOUDY    82  78  88 S3        29.97R HX  91
*BAY CITY      PTCLDY    81  79  92 S3        29.97S HX  91
PALACIOS       PTCLDY    82  74  76 SE10      29.96R
$$

TXZ229>234-239>247-281100-
TEXAS COASTAL BEND AND RIO GRANDE PLAINS

CITY           SKY/WX    TMP DP  RH WIND       PRES   REMARKS
VICTORIA       PTCLDY    77  76  96 E5        29.96S
*BEEVILLE      MOCLDY    73  73 100 SE3       29.95S
ROCKPORT       CLOUDY    84  76  76 S10       29.94R HX  93
*PORT ARANSAS  PTCLDY    83  79  87 S10G18    29.93F HX  95
*PORT LAVACA   PTCLDY    80  79  96 CALM      29.96R
*INGLESIDE     CLOUDY    85  79  82 S9        29.94S HX  98
CORPUS CHRISTI CLOUDY    83  79  88 S8        29.93F HX  94
CORPUS NAS       N/A    N/A N/A N/A MISG      29.93F
*ROBSTOWN      CLOUDY    83  79  86 S8        29.94S HX  95
ALICE          CLOUDY    79  77  94 S5        29.93S
KINGSVILLE NAS MOCLDY    79  79 100 S6        29.93S
COTULLA        PTCLDY    77  74  90 E5        29.94R
*FAITH RANCH   CLOUDY    79  70  73 SE6       29.94R
LAREDO         PTCLDY    80  74  81 SE9       29.92S
$$

TXZ248>255-281100-
DEEP SOUTH TEXAS

CITY           SKY/WX    TMP DP  RH WIND       PRES   REMARKS
BROWNSVILLE    MOCLDY    82  78  88 S9        29.93S HX  91
PORT ISABEL    MOCLDY    83  78  85 SE9       29.92S HX  93
*SOUTH PADRE     N/A     81  77  89 S7        29.93S
HARLINGEN      PTCLDY    82  77  84 S10       29.91F HX  90
*HEBBRONVILLE  CLOUDY    78  74  88 SE7       29.94F
MCALLEN        CLOUDY    84  77  79 S6        29.92S HX  94
*WESLACO       PTCLDY    78  37  22 S8        29.91F
FALFURRIAS     CLOUDY    81  76  87 SE5       29.92F
EDINBURG       MOCLDY    82  76  83 CALM      29.93S
*ZAPATA        MOCLDY    81  73  76 SE5       29.91F
$$

TXZ213>215-236>238-242>244-246-247-251-254-255-281100-
CMAN STATIONS

STATION/POSITION TIME  TEMP    WIND        PRES    WAVE
                       AIR SEA DIR/SP/G            HT/PER
                 (UTC) (F)     (DEG/KT/KT) (MB)    (FT/S)
SABINE PASS      0900   84 87  200/  8/ 11 1016.7
SEA RIM ST PARK  1000   84     180/ 10/ 14 1015.7
NORTH JETTY/GLS  0900   86 86                N/A
EAGLE POINT      0900   85 79  210/ 10/ 13 1015.0
MORGANS POINT    0900   84 87  190/  7/  9 1014.9
MISSION/ARANSAS  0900   85                 1014.0
PORT ARANSAS     1000   84 87  160/ 18/ 19 1013.5
MALAQUITE BEACH  0900   84 87  150/ 16/ 18 1013.8
BAFFIN BAY       0900   83 85  160/ 11/ 13 1013.8
PORT ISABEL      0900   83 87  160/  9/ 12 1013.4
$$

GMZ080-GMZ150>470-281100-
OFFSHORE BUOY REPORTS

STATION/POSITION TIME  TEMP    WIND        PRES    WAVE
                       AIR SEA DIR/SP/G            HT/PER
                 (UTC) (F)     (DEG/KT/KT) (MB)    (FT/S)
20 E GALVESTON   0950   86 86  190/ 14/ 16 1014.8    4/ 6
90 E PT ARANSAS  0950   85 85  160/ 14/ 16 1014.3    4/ 6
35 NE PT MANSFLD 0950   84 85  170/ 16/ 19 1013.2    4/ 6
200 E PT ISABEL  0950   85 86  140/ 10/ 12 1015.0    3/ 6
$$




USA.gov is the U.S. government's official web portal to all federal, state and local government web resources and services.